UAE7MY OMDB-YPPH

Flight info

Callsign UAE7MY
Flight time N/A
Altitude 35000
Route ANVIX L223 TARDI N629 GIDAN P570 KITAL L894 BOLUR/N0495F370 L894 DADAR/N0489F390 L894 SINAM/N0484F410 L894 MERIB T12 KAGMI
Aircraft A359/H-SABDE2E3GHIJ1J2J3J4J5LM1OP2RVWXYZ/LB2D1

Departure

Time N/A
Airport Dubai International Airport (OMDB)

Arrival

Time 2026-04-28 09:05
Airport Perth International Airport (YPPH)
Time Latitude Longitude Altitude Speed Heading
2026-04-28 06:45 -21.00002 99.78933 37277 ft 508 kts 136°
2026-04-28 06:45 -21.02288 99.81808 37522 ft 507 kts 136°
2026-04-28 06:46 -21.04572 99.84680 37766 ft 506 kts 136°
2026-04-28 06:46 -21.06840 99.87540 38042 ft 504 kts 136°
2026-04-28 06:46 -21.09102 99.90397 38277 ft 503 kts 137°
2026-04-28 06:46 -21.11376 99.93259 38501 ft 502 kts 137°
2026-04-28 06:47 -21.13632 99.96099 38699 ft 501 kts 137°
2026-04-28 06:47 -21.15890 99.98951 38835 ft 501 kts 137°
2026-04-28 06:47 -21.18117 100.01756 38960 ft 501 kts 137°
2026-04-28 06:48 -21.22652 100.07455 39000 ft 502 kts 137°
2026-04-28 06:48 -21.27172 100.13151 39001 ft 501 kts 137°
2026-04-28 06:49 -21.31688 100.18863 39001 ft 501 kts 136°
2026-04-28 06:49 -21.36183 100.24582 39003 ft 501 kts 136°
2026-04-28 06:50 -21.40681 100.30294 39001 ft 501 kts 136°
2026-04-28 06:50 -21.45179 100.36006 38997 ft 501 kts 136°
2026-04-28 06:51 -21.49683 100.41723 38993 ft 501 kts 137°
2026-04-28 06:51 -21.54165 100.47397 38993 ft 501 kts 136°
2026-04-28 06:52 -21.58663 100.53132 39004 ft 502 kts 137°
2026-04-28 06:52 -21.63161 100.58866 39008 ft 501 kts 137°
2026-04-28 06:53 -21.67655 100.64599 39008 ft 501 kts 137°
2026-04-28 06:53 -21.72152 100.70334 38991 ft 501 kts 136°
2026-04-28 06:54 -21.76644 100.76077 39007 ft 501 kts 136°
2026-04-28 06:54 -21.81133 100.81818 39001 ft 502 kts 136°
2026-04-28 06:55 -21.85629 100.87573 39001 ft 502 kts 136°
2026-04-28 06:55 -21.90096 100.93303 39001 ft 502 kts 136°
2026-04-28 06:56 -21.94582 100.99065 39001 ft 502 kts 136°
2026-04-28 06:56 -21.99068 101.04839 39001 ft 502 kts 136°
2026-04-28 06:57 -22.03563 101.10607 39001 ft 502 kts 136°
2026-04-28 06:57 -22.08045 101.16381 39016 ft 502 kts 136°
2026-04-28 06:58 -22.12540 101.22170 39001 ft 504 kts 136°
2026-04-28 06:58 -22.17035 101.27972 39002 ft 504 kts 136°
2026-04-28 06:59 -22.21537 101.33784 39002 ft 504 kts 136°
2026-04-28 06:59 -22.25269 101.38614 39001 ft 504 kts 136°
2026-04-28 07:00 -22.30484 101.45374 39002 ft 504 kts 136°
2026-04-28 07:00 -22.34215 101.50208 39005 ft 503 kts 136°
2026-04-28 07:01 -22.38701 101.56024 39009 ft 504 kts 136°
2026-04-28 07:01 -22.43183 101.61847 39003 ft 504 kts 136°
2026-04-28 07:02 -22.47701 101.67721 39007 ft 505 kts 136°
2026-04-28 07:02 -22.52162 101.73530 38998 ft 504 kts 136°
2026-04-28 07:03 -22.56637 101.79366 38995 ft 504 kts 136°
2026-04-28 07:03 -22.61113 101.85202 39004 ft 504 kts 136°
2026-04-28 07:04 -22.65588 101.91045 38996 ft 504 kts 136°
2026-04-28 07:04 -22.70065 101.96905 39001 ft 505 kts 136°
2026-04-28 07:05 -22.74544 102.02771 38999 ft 505 kts 136°
2026-04-28 07:05 -22.79030 102.08643 39001 ft 505 kts 136°
2026-04-28 07:06 -22.83507 102.14521 39001 ft 505 kts 136°
2026-04-28 07:06 -22.87979 102.20397 39001 ft 505 kts 136°
2026-04-28 07:07 -22.92455 102.26299 39003 ft 505 kts 136°
2026-04-28 07:07 -22.96898 102.32149 39005 ft 506 kts 136°
2026-04-28 07:08 -23.01379 102.38051 38999 ft 507 kts 136°
2026-04-28 07:08 -23.05856 102.43967 39003 ft 507 kts 136°
2026-04-28 07:09 -23.10340 102.49873 38998 ft 507 kts 136°
2026-04-28 07:09 -23.14819 102.55794 39001 ft 507 kts 136°
2026-04-28 07:10 -23.19291 102.61731 39004 ft 507 kts 136°
2026-04-28 07:10 -23.23761 102.67652 39027 ft 507 kts 136°
2026-04-28 07:11 -23.28217 102.73558 39001 ft 508 kts 137°
2026-04-28 07:11 -23.32696 102.79505 39001 ft 508 kts 136°
2026-04-28 07:12 -23.37174 102.85460 39001 ft 508 kts 136°
2026-04-28 07:12 -23.41654 102.91436 39001 ft 508 kts 136°
2026-04-28 07:13 -23.46127 102.97395 39006 ft 508 kts 136°
2026-04-28 07:13 -23.50594 103.03371 39004 ft 508 kts 136°
2026-04-28 07:14 -23.55067 103.09343 39005 ft 509 kts 136°
2026-04-28 07:14 -23.59541 103.15328 39006 ft 509 kts 136°
2026-04-28 07:15 -23.63989 103.21290 39004 ft 509 kts 136°
2026-04-28 07:15 -23.68450 103.27296 39004 ft 509 kts 136°
2026-04-28 07:16 -23.72921 103.33307 39004 ft 509 kts 136°
2026-04-28 07:16 -23.77387 103.39314 39004 ft 510 kts 136°
2026-04-28 07:17 -23.81848 103.45322 39008 ft 510 kts 137°
2026-04-28 07:17 -23.86336 103.51343 39000 ft 510 kts 136°
2026-04-28 07:18 -23.90808 103.57377 39009 ft 510 kts 136°
2026-04-28 07:18 -23.95264 103.63413 39011 ft 510 kts 136°
2026-04-28 07:19 -23.99726 103.69454 39007 ft 510 kts 136°
2026-04-28 07:19 -24.04163 103.75456 38995 ft 510 kts 136°
2026-04-28 07:20 -24.08622 103.81497 39007 ft 510 kts 136°
2026-04-28 07:20 -24.13082 103.87551 38998 ft 510 kts 136°
2026-04-28 07:21 -24.17225 103.93170 38995 ft 511 kts 136°
2026-04-28 07:21 -24.21686 103.99234 39001 ft 511 kts 136°
2026-04-28 07:22 -24.28360 104.08331 38999 ft 511 kts 136°
2026-04-28 07:22 -24.32806 104.14404 38995 ft 511 kts 136°
2026-04-28 07:23 -24.37232 104.20455 39005 ft 511 kts 136°
2026-04-28 07:23 -24.41685 104.26549 39005 ft 512 kts 136°
2026-04-28 07:24 -24.46142 104.32658 39009 ft 512 kts 136°
2026-04-28 07:24 -24.50592 104.38765 39003 ft 512 kts 136°
2026-04-28 07:25 -24.55046 104.44886 39002 ft 512 kts 136°
2026-04-28 07:25 -24.59496 104.51008 39002 ft 512 kts 136°
2026-04-28 07:26 -24.63941 104.57131 39012 ft 513 kts 136°
2026-04-28 07:26 -24.68393 104.63270 39007 ft 514 kts 136°
2026-04-28 07:27 -24.72841 104.69416 39007 ft 514 kts 136°
2026-04-28 07:27 -24.77291 104.75575 39007 ft 514 kts 136°
2026-04-28 07:28 -24.81727 104.81740 39007 ft 514 kts 136°
2026-04-28 07:28 -24.86170 104.87905 39007 ft 514 kts 136°
2026-04-28 07:29 -24.90586 104.94032 39016 ft 514 kts 136°
2026-04-28 07:29 -24.95044 105.00207 39007 ft 515 kts 136°
2026-04-28 07:30 -24.99497 105.06396 39010 ft 515 kts 136°
2026-04-28 07:30 -25.03939 105.12605 39010 ft 515 kts 136°
2026-04-28 07:31 -25.08383 105.18817 39007 ft 515 kts 136°
2026-04-28 07:31 -25.12824 105.25028 39006 ft 515 kts 136°
2026-04-28 07:32 -25.17272 105.31250 39009 ft 516 kts 136°
2026-04-28 07:32 -25.21697 105.37448 39007 ft 517 kts 136°
2026-04-28 07:33 -25.26145 105.43685 39007 ft 517 kts 136°
2026-04-28 07:33 -25.30584 105.49924 39007 ft 517 kts 136°
2026-04-28 07:34 -25.35038 105.56172 39011 ft 517 kts 136°
2026-04-28 07:34 -25.39480 105.62428 39009 ft 517 kts 136°
2026-04-28 07:35 -25.43916 105.68694 39017 ft 517 kts 136°
2026-04-28 07:35 -25.48358 105.74950 39014 ft 517 kts 136°
2026-04-28 07:36 -25.52768 105.81182 39009 ft 517 kts 135°
2026-04-28 07:36 -25.57189 105.87476 39011 ft 517 kts 135°
2026-04-28 07:37 -25.61608 105.93758 39011 ft 517 kts 135°
2026-04-28 07:37 -25.66043 106.00056 39020 ft 517 kts 136°
2026-04-28 07:38 -25.70469 106.06339 39013 ft 518 kts 135°
2026-04-28 07:38 -25.74897 106.12649 39015 ft 518 kts 135°
2026-04-28 07:39 -25.79332 106.18949 39015 ft 518 kts 136°
2026-04-28 07:39 -25.83758 106.25257 39015 ft 518 kts 135°
2026-04-28 07:40 -25.88183 106.31582 39015 ft 518 kts 135°
2026-04-28 07:40 -25.92579 106.37875 39036 ft 518 kts 135°
2026-04-28 07:41 -25.96999 106.44208 39019 ft 519 kts 136°
2026-04-28 07:41 -26.01424 106.50553 39014 ft 519 kts 135°
2026-04-28 07:42 -26.05845 106.56917 39014 ft 519 kts 135°
2026-04-28 07:42 -26.10267 106.63269 39015 ft 519 kts 135°
2026-04-28 07:43 -26.14673 106.69633 39018 ft 519 kts 135°
2026-04-28 07:43 -26.19091 106.76017 39032 ft 520 kts 135°
2026-04-28 07:44 -26.22761 106.81316 39007 ft 520 kts 135°
2026-04-28 07:44 -26.27882 106.88741 39024 ft 520 kts 135°
2026-04-28 07:45 -26.32295 106.95129 39019 ft 520 kts 135°
2026-04-28 07:45 -26.35997 107.00482 39023 ft 520 kts 135°
2026-04-28 07:46 -26.40403 107.06876 39017 ft 520 kts 135°
2026-04-28 07:46 -26.44806 107.13301 39027 ft 521 kts 135°
2026-04-28 07:47 -26.49214 107.19750 39017 ft 522 kts 135°
2026-04-28 07:47 -26.53626 107.26185 39018 ft 522 kts 135°
2026-04-28 07:48 -26.58038 107.32622 39018 ft 521 kts 135°
2026-04-28 07:48 -26.62413 107.39032 39017 ft 522 kts 135°
2026-04-28 07:49 -26.66818 107.45487 39018 ft 523 kts 134°
2026-04-28 07:49 -26.71233 107.51978 39017 ft 524 kts 135°
2026-04-28 07:50 -26.75641 107.58461 39017 ft 524 kts 134°
2026-04-28 07:50 -26.80052 107.64963 39017 ft 524 kts 135°
2026-04-28 07:51 -26.84472 107.71475 39018 ft 524 kts 134°
2026-04-28 07:51 -26.88877 107.77980 39017 ft 525 kts 134°
2026-04-28 07:52 -26.93297 107.84514 39023 ft 526 kts 134°
2026-04-28 07:52 -26.97723 107.91062 39018 ft 526 kts 134°
2026-04-28 07:53 -27.02113 107.97574 39017 ft 526 kts 134°
2026-04-28 07:53 -27.06547 108.04173 39015 ft 526 kts 134°
2026-04-28 07:54 -27.10957 108.10729 39015 ft 526 kts 134°
2026-04-28 07:54 -27.15343 108.17246 39015 ft 526 kts 134°
2026-04-28 07:55 -27.19742 108.23812 39023 ft 526 kts 134°
2026-04-28 07:55 -27.24141 108.30388 39027 ft 526 kts 134°
2026-04-28 07:56 -27.28537 108.36977 39015 ft 526 kts 134°
2026-04-28 07:56 -27.32938 108.43564 39024 ft 526 kts 134°
2026-04-28 07:57 -27.37328 108.50160 39019 ft 527 kts 134°
2026-04-28 07:57 -27.41727 108.56769 39023 ft 527 kts 134°
2026-04-28 07:58 -27.46116 108.63377 39017 ft 527 kts 134°
2026-04-28 07:58 -27.50508 108.69990 39018 ft 527 kts 134°
2026-04-28 07:59 -27.54856 108.76569 39016 ft 527 kts 134°
2026-04-28 07:59 -27.59245 108.83196 39019 ft 528 kts 134°
2026-04-28 08:00 -27.63630 108.89860 39054 ft 529 kts 134°
2026-04-28 08:00 -27.68001 108.96556 39023 ft 529 kts 133°
2026-04-28 08:01 -27.72267 109.03339 39020 ft 530 kts 132°
2026-04-28 08:01 -27.76671 109.09996 39020 ft 528 kts 135°
2026-04-28 08:02 -27.81145 109.16565 39021 ft 528 kts 135°
2026-04-28 08:02 -27.85572 109.23212 39020 ft 529 kts 134°
2026-04-28 08:03 -27.89929 109.29859 39022 ft 529 kts 134°
2026-04-28 08:03 -27.94297 109.36561 39021 ft 528 kts 134°
2026-04-28 08:04 -27.98658 109.43255 39020 ft 528 kts 134°
2026-04-28 08:04 -28.03020 109.49954 39021 ft 528 kts 134°
2026-04-28 08:05 -28.07388 109.56665 39020 ft 528 kts 134°
2026-04-28 08:05 -28.11741 109.63368 39032 ft 528 kts 134°
2026-04-28 08:06 -28.16062 109.70037 39029 ft 528 kts 134°
2026-04-28 08:06 -28.20405 109.76752 39014 ft 527 kts 134°
2026-04-28 08:07 -28.24745 109.83461 39021 ft 528 kts 134°
2026-04-28 08:07 -28.29082 109.90193 39019 ft 528 kts 134°
2026-04-28 08:08 -28.33421 109.96924 39034 ft 528 kts 134°
2026-04-28 08:08 -28.37750 110.03656 39022 ft 528 kts 134°
2026-04-28 08:09 -28.42087 110.10413 39021 ft 528 kts 133°
2026-04-28 08:09 -28.46412 110.17159 39020 ft 528 kts 133°
2026-04-28 08:10 -28.50742 110.23920 39021 ft 529 kts 133°
2026-04-28 08:10 -28.55034 110.30633 39052 ft 529 kts 133°
2026-04-28 08:11 -28.59357 110.37411 39024 ft 528 kts 133°
2026-04-28 08:11 -28.63673 110.44187 39022 ft 528 kts 133°
2026-04-28 08:12 -28.67982 110.50962 39022 ft 528 kts 133°
2026-04-28 08:12 -28.72293 110.57749 39026 ft 529 kts 132°
2026-04-28 08:13 -28.76599 110.64543 39025 ft 529 kts 132°
2026-04-28 08:13 -28.80903 110.71344 39026 ft 528 kts 132°
2026-04-28 08:14 -28.85198 110.78144 39024 ft 528 kts 132°
2026-04-28 08:14 -28.89493 110.84952 39026 ft 528 kts 132°
2026-04-28 08:15 -28.93794 110.91784 39023 ft 529 kts 132°
2026-04-28 08:15 -28.98058 110.98562 39028 ft 529 kts 132°
2026-04-28 08:16 -29.02349 111.05395 39025 ft 529 kts 132°
2026-04-28 08:16 -29.06643 111.12245 39028 ft 529 kts 132°
2026-04-28 08:17 -29.10929 111.19094 39024 ft 530 kts 131°
2026-04-28 08:17 -29.15221 111.25963 39023 ft 530 kts 131°
2026-04-28 08:18 -29.19502 111.32832 39033 ft 530 kts 131°
2026-04-28 08:18 -29.23782 111.39706 39022 ft 529 kts 131°
2026-04-28 08:19 -29.28050 111.46574 39024 ft 529 kts 131°
2026-04-28 08:19 -29.32316 111.53448 39025 ft 529 kts 131°
2026-04-28 08:20 -29.36577 111.60327 39022 ft 529 kts 131°
2026-04-28 08:20 -29.40802 111.67158 39026 ft 529 kts 131°
2026-04-28 08:21 -29.45054 111.74042 39027 ft 527 kts 131°
2026-04-28 08:21 -29.49286 111.80910 39028 ft 527 kts 131°
2026-04-28 08:22 -29.53519 111.87791 39026 ft 527 kts 131°
2026-04-28 08:22 -29.57754 111.94682 39026 ft 528 kts 131°
2026-04-28 08:23 -29.61979 112.01571 39026 ft 528 kts 131°
2026-04-28 08:23 -29.66202 112.08471 39028 ft 526 kts 130°
2026-04-28 08:24 -29.70404 112.15352 39033 ft 526 kts 130°
2026-04-28 08:24 -29.74589 112.22210 39033 ft 527 kts 130°
2026-04-28 08:25 -29.78805 112.29132 39031 ft 527 kts 130°
2026-04-28 08:26 -29.85116 112.39504 39045 ft 527 kts 130°
2026-04-28 08:26 -29.89311 112.46415 39022 ft 525 kts 130°
2026-04-28 08:27 -29.93499 112.53333 39022 ft 527 kts 129°
2026-04-28 08:27 -29.97693 112.60273 39025 ft 527 kts 129°
2026-04-28 08:28 -30.01175 112.66043 39037 ft 527 kts 129°
2026-04-28 08:28 -30.05715 112.72604 39040 ft 518 kts 142°
2026-04-28 08:29 -30.11529 112.77192 39029 ft 499 kts 162°
2026-04-28 08:29 -30.17944 112.80228 39032 ft 498 kts 165°
2026-04-28 08:30 -30.24400 112.83015 39037 ft 499 kts 165°
2026-04-28 08:30 -30.30919 112.85826 39043 ft 500 kts 165°
2026-04-28 08:31 -30.37426 112.88679 39038 ft 500 kts 165°
2026-04-28 08:31 -30.43928 112.91549 39042 ft 500 kts 164°
2026-04-28 08:32 -30.50430 112.94426 39042 ft 500 kts 164°
2026-04-28 08:32 -30.56922 112.97300 39044 ft 499 kts 164°
2026-04-28 08:33 -30.63420 113.00178 39041 ft 499 kts 164°
2026-04-28 08:33 -30.69907 113.03057 39044 ft 499 kts 164°
2026-04-28 08:34 -30.76399 113.05941 39067 ft 499 kts 164°
2026-04-28 08:34 -30.82888 113.08828 39052 ft 499 kts 164°
2026-04-28 08:35 -30.89382 113.11723 39043 ft 500 kts 164°
2026-04-28 08:35 -30.95857 113.14612 39049 ft 502 kts 164°
2026-04-28 08:36 -31.02390 113.17531 39053 ft 502 kts 163°
2026-04-28 08:36 -31.08919 113.20456 39055 ft 502 kts 163°
2026-04-28 08:37 -31.15440 113.23385 39056 ft 502 kts 163°
2026-04-28 08:37 -31.21956 113.26304 39058 ft 502 kts 163°
2026-04-28 08:38 -31.28481 113.29237 38993 ft 502 kts 163°
2026-04-28 08:38 -31.31691 113.30680 38785 ft 502 kts 163°
2026-04-28 08:38 -31.34956 113.32151 38523 ft 502 kts 163°
2026-04-28 08:38 -31.38212 113.33654 38249 ft 504 kts 161°
2026-04-28 08:39 -31.41335 113.35577 37983 ft 510 kts 151°
2026-04-28 08:39 -31.44180 113.38091 37580 ft 513 kts 141°
2026-04-28 08:39 -31.46595 113.41173 36949 ft 516 kts 128°
2026-04-28 08:39 -31.48463 113.44770 36235 ft 519 kts 116°
2026-04-28 08:40 -31.49708 113.48743 35537 ft 520 kts 104°
2026-04-28 08:40 -31.50586 113.52860 34812 ft 522 kts 102°
2026-04-28 08:40 -31.51362 113.57036 33976 ft 525 kts 100°
2026-04-28 08:40 -31.52091 113.61237 33057 ft 527 kts 99°
2026-04-28 08:41 -31.52812 113.65450 32169 ft 528 kts 99°
2026-04-28 08:41 -31.53543 113.69665 31427 ft 526 kts 99°
2026-04-28 08:41 -31.54284 113.73862 30825 ft 522 kts 99°
2026-04-28 08:41 -31.55028 113.78012 30219 ft 517 kts 99°
2026-04-28 08:42 -31.55769 113.82122 29563 ft 512 kts 99°
2026-04-28 08:42 -31.56492 113.86130 28947 ft 507 kts 99°
2026-04-28 08:42 -31.57221 113.90154 28380 ft 501 kts 99°
2026-04-28 08:42 -31.57938 113.94127 27823 ft 495 kts 99°
2026-04-28 08:43 -31.58653 113.98108 27281 ft 490 kts 100°
2026-04-28 08:43 -31.59341 114.01945 26746 ft 485 kts 100°
2026-04-28 08:43 -31.60031 114.05799 26203 ft 481 kts 100°
2026-04-28 08:43 -31.60712 114.09618 25662 ft 476 kts 100°
2026-04-28 08:44 -31.61387 114.13406 25136 ft 472 kts 100°
2026-04-28 08:44 -31.62056 114.17163 24612 ft 468 kts 100°
2026-04-28 08:44 -31.62718 114.20890 24072 ft 464 kts 101°
2026-04-28 08:44 -31.63373 114.24582 23541 ft 461 kts 101°
2026-04-28 08:45 -31.64021 114.28249 22942 ft 457 kts 101°
2026-04-28 08:45 -31.64664 114.31882 22428 ft 452 kts 101°
2026-04-28 08:45 -31.65297 114.35469 21888 ft 447 kts 101°
2026-04-28 08:45 -31.65924 114.39026 21351 ft 443 kts 101°
2026-04-28 08:46 -31.66545 114.42554 20827 ft 439 kts 101°
2026-04-28 08:46 -31.67159 114.46051 20303 ft 435 kts 101°
2026-04-28 08:46 -31.67766 114.49518 19769 ft 432 kts 101°
2026-04-28 08:46 -31.68370 114.52963 19247 ft 429 kts 101°
2026-04-28 08:47 -31.68969 114.56392 18718 ft 427 kts 101°
2026-04-28 08:47 -31.69564 114.59799 18160 ft 425 kts 101°
2026-04-28 08:47 -31.70155 114.63184 17589 ft 421 kts 101°
2026-04-28 08:47 -31.70738 114.66543 17053 ft 417 kts 101°
2026-04-28 08:48 -31.71303 114.69816 16553 ft 413 kts 101°
2026-04-28 08:48 -31.71871 114.73099 16015 ft 408 kts 101°
2026-04-28 08:48 -31.72434 114.76345 15504 ft 404 kts 101°
2026-04-28 08:48 -31.72989 114.79569 14974 ft 401 kts 101°
2026-04-28 08:49 -31.73539 114.82759 14467 ft 397 kts 101°
2026-04-28 08:49 -31.74085 114.85925 13948 ft 393 kts 101°
2026-04-28 08:49 -31.74626 114.89068 13400 ft 390 kts 102°
2026-04-28 08:49 -31.75161 114.92170 12888 ft 385 kts 102°
2026-04-28 08:50 -31.75690 114.95244 12416 ft 381 kts 102°
2026-04-28 08:50 -31.76208 114.98275 11898 ft 377 kts 101°
2026-04-28 08:50 -31.76719 115.01283 11416 ft 373 kts 102°
2026-04-28 08:50 -31.77230 115.04280 11047 ft 374 kts 102°
2026-04-28 08:51 -31.77737 115.07257 10656 ft 366 kts 102°
2026-04-28 08:51 -31.78218 115.10087 10514 ft 350 kts 101°
2026-04-28 08:51 -31.78687 115.12840 10367 ft 336 kts 101°
2026-04-28 08:51 -31.79134 115.15474 10204 ft 322 kts 102°
2026-04-28 08:52 -31.79561 115.18003 10067 ft 309 kts 102°
2026-04-28 08:52 -31.79974 115.20444 9856 ft 299 kts 102°
2026-04-28 08:52 -31.80375 115.22817 9518 ft 295 kts 102°
2026-04-28 08:52 -31.80775 115.25187 9224 ft 295 kts 102°
2026-04-28 08:53 -31.81173 115.27548 8941 ft 294 kts 101°
2026-04-28 08:53 -31.81655 115.29876 8615 ft 292 kts 106°
2026-04-28 08:53 -31.82214 115.32159 8295 ft 290 kts 106°
2026-04-28 08:53 -31.82770 115.34427 7991 ft 287 kts 106°
2026-04-28 08:54 -31.83313 115.36686 7673 ft 286 kts 105°
2026-04-28 08:54 -31.83847 115.38942 7374 ft 285 kts 105°
2026-04-28 08:54 -31.84373 115.41182 7065 ft 284 kts 104°
2026-04-28 08:54 -31.84895 115.43412 6752 ft 282 kts 104°
2026-04-28 08:55 -31.85407 115.45607 6443 ft 280 kts 104°
2026-04-28 08:55 -31.85919 115.47810 6144 ft 278 kts 104°
2026-04-28 08:55 -31.86428 115.49993 5894 ft 274 kts 104°
2026-04-28 08:55 -31.86905 115.52162 5736 ft 273 kts 100°
2026-04-28 08:56 -31.87037 115.54372 5599 ft 270 kts 88°
2026-04-28 08:56 -31.86954 115.56566 5434 ft 269 kts 86°
2026-04-28 08:56 -31.86848 115.58758 5279 ft 268 kts 86°
2026-04-28 08:56 -31.86746 115.60944 5127 ft 267 kts 86°
2026-04-28 08:57 -31.86648 115.63115 4975 ft 265 kts 86°
2026-04-28 08:57 -31.86552 115.65275 4822 ft 265 kts 86°
2026-04-28 08:57 -31.86457 115.67442 4659 ft 265 kts 86°
2026-04-28 08:57 -31.86361 115.69609 4504 ft 265 kts 86°
2026-04-28 08:58 -31.86270 115.71766 4336 ft 264 kts 86°
2026-04-28 08:58 -31.86175 115.73917 4206 ft 263 kts 86°
2026-04-28 08:58 -31.86078 115.76063 4049 ft 262 kts 86°
2026-04-28 08:58 -31.85982 115.78203 3903 ft 261 kts 86°
2026-04-28 08:59 -31.85779 115.80316 3753 ft 260 kts 76°
2026-04-28 08:59 -31.84981 115.82195 3594 ft 258 kts 50°
2026-04-28 08:59 -31.83819 115.83809 3447 ft 258 kts 50°
2026-04-28 08:59 -31.82650 115.85415 3289 ft 258 kts 51°
2026-04-28 09:00 -31.81610 115.87107 3164 ft 250 kts 58°
2026-04-28 09:00 -31.80810 115.88839 3044 ft 237 kts 65°
2026-04-28 09:00 -31.80220 115.90589 2934 ft 224 kts 71°
2026-04-28 09:00 -31.79815 115.92331 2841 ft 212 kts 77°
2026-04-28 09:01 -31.79585 115.93965 2746 ft 200 kts 83°
2026-04-28 09:01 -31.79611 115.95573 2666 ft 198 kts 101°
2026-04-28 09:01 -31.80245 115.96973 2520 ft 193 kts 135°
2026-04-28 09:01 -31.80947 115.97608 2475 ft 184 kts 146°
2026-04-28 09:02 -31.82378 115.98605 2130 ft 179 kts 148°
2026-04-28 09:02 -31.83452 115.99328 1999 ft 177 kts 148°
2026-04-28 09:02 -31.84617 115.99616 1989 ft 171 kts 191°
2026-04-28 09:02 -31.85716 115.99174 1996 ft 164 kts 198°
2026-04-28 09:03 -31.86778 115.98719 1879 ft 162 kts 198°
2026-04-28 09:03 -31.87839 115.98282 1564 ft 160 kts 192°
2026-04-28 09:03 -31.88923 115.97970 1186 ft 162 kts 190°
2026-04-28 09:03 -31.90025 115.97672 824 ft 163 kts 192°
2026-04-28 09:04 -31.91122 115.97340 511 ft 161 kts 191°
2026-04-28 09:04 -31.92197 115.97032 243 ft 157 kts 191°
2026-04-28 09:04 -31.93240 115.96728 54 ft 150 kts 191°
2026-04-28 09:04 -31.94119 115.96481 52 ft 105 kts 194°
2026-04-28 09:05 -31.94661 115.96319 50 ft 57 kts 194°
2026-04-28 09:05 -31.94912 115.96245 48 ft 28 kts 194°
2026-04-28 09:05 -31.95058 115.96232 49 ft 19 kts 155°
2026-04-28 09:05 -31.95106 115.96357 56 ft 17 kts 103°
2026-04-28 09:06 -31.95129 115.96489 53 ft 15 kts 88°
2026-04-28 09:06 -31.95051 115.96560 50 ft 16 kts 15°
2026-04-28 09:06 -31.94936 115.96593 51 ft 18 kts 14°
2026-04-28 09:06 -31.94805 115.96632 51 ft 20 kts 14°
2026-04-28 09:07 -31.94661 115.96674 53 ft 22 kts 14°
2026-04-28 09:07 -31.94503 115.96721 57 ft 24 kts 14°
2026-04-28 09:07 -31.94334 115.96770 51 ft 24 kts 14°
2026-04-28 09:07 -31.94172 115.96818 50 ft 24 kts 14°
2026-04-28 09:08 -31.94023 115.96861 52 ft 18 kts 13°
2026-04-28 09:08 -31.93928 115.96902 51 ft 13 kts 48°
2026-04-28 09:08 -31.93929 115.97003 51 ft 14 kts 101°
2026-04-28 09:08 -31.93949 115.97106 57 ft 9 kts 103°
2026-04-28 09:09 -31.93970 115.97141 49 ft 4 kts 163°
2026-04-28 09:09 -31.94006 115.97135 49 ft 8 kts 191°
2026-04-28 09:09 -31.94042 115.97125 57 ft 2 kts 193°
2026-04-28 09:09 -31.94053 115.97122 57 ft 0 kts 194°